カタログに戻る

GALAXY 31

運用中通信GEO
NORAD 54243·PAYLOAD·🇺🇸 United States

打ち上げ Nov 12, 2022 から Cape Canaveral Space Force Station

Loading…

TLE

最新Source: CelesTrak SupGP

元期: Sep 14, 2026, 00:00 UTC

1 54243C 22153A   26257.00000000  .00000103  00000+0  00000+0 0  2572
2 54243   0.0225 237.2873 0001292 284.0198  70.6832  1.00272302    11

AllMySatでGALAXY 31をリアルタイム追跡

Download on the App Store